Weather History for Manston, United Kingdom

Change the Weather History Date:

Thursday, October 25, 2012

  Actual Average Record
Temperature  
Mean Temperature 55 °F -  
Max Temperature 57 °F - - ()
Min Temperature 51 °F - - ()
Degree Days  
Heating Degree Days 10    
Growing Degree Days 5 (Base 50)    
Moisture  
Dew Point 52 °F    
Average Humidity 90    
Maximum Humidity 100    
Minimum Humidity 77    
Precipitation  
Precipitation 0.00 in - - ()
Sea Level Pressure  
Sea Level Pressure 30.02 in    
Wind  
Wind Speed 12 mph ()    
Max Wind Speed 17 mph    
Max Gust Speed -    
Visibility 5.3 miles    
Events Rain    
T = Trace of Precipitation, MM = Missing Value Source: Averaged Metar Reports

Daily Weather History Graph

Daily Weather History Graph

Search for Another Location

Airport:

Trip Planner

Search our weather history database for the weather conditions in past years. The results will help you decide how hot, cold, wet, or windy it might be!

Date:

Astronomy

Oct. 25, 2012 Rise Set
Actual Time 7:36 AM BST 5:40 PM BST
Civil Twilight 7:01 AM BST 6:14 PM BST
Nautical Twilight 6:22 AM BST 6:53 PM BST
Astronomical Twilight 5:44 AM BST 7:32 PM BST
Moon 3:41 PM BST (10/25) 2:50 AM BST (10/25)
Length of Visible Light 11h 13m
Length of Day
10h 04m
Waxing Gibbous, 82% of the Moon is Illuminated
Oct 25
Waxing Gibbous
Oct 29
Full
Nov 7
Last Quarter
Nov 13
New
Nov 20
First Quarter

Hourly Weather History & Observations

Time (BST) Temp. Dew Point Humidity Pressure Visibility Wind Dir Wind Speed Gust Speed Precip Events Conditions
12:50 AM 56 °F 56 °F 100% 30.06 in 1 mi ENE 12.7 mph - -   Mist
3:50 AM 55 °F 55 °F 100% 30.04 in 2 mi ENE 10.4 mph - -   Mist
6:20 AM 55.4 °F 53.6 °F 94% 30.04 in 2.5 mi ENE 13.8 mph - N/A   Mostly Cloudy
6:50 AM 55 °F 55 °F 100% 30.02 in 3 mi ENE 11.5 mph - -   Mist
6:50 AM 55.4 °F 53.6 °F 94% 30.01 in 2.8 mi ENE 11.5 mph - N/A   Mostly Cloudy
7:20 AM 55.4 °F 53.6 °F 94% 30.04 in 2.5 mi ENE 12.7 mph - N/A   Mostly Cloudy
7:50 AM 55.4 °F 53.6 °F 94% 30.04 in 6.2 mi NE 10.4 mph - N/A   Mostly Cloudy
8:20 AM 55.4 °F 53.6 °F 94% 30.04 in 6.2 mi ENE 13.8 mph - N/A   Mostly Cloudy
8:50 AM 55.4 °F 53.6 °F 94% 30.04 in 6.2 mi NE 12.7 mph - N/A   Overcast
9:20 AM 55.4 °F 53.6 °F 94% 30.04 in 3.1 mi NE 13.8 mph - N/A   Mostly Cloudy
9:50 AM 56 °F 56 °F 100% 30.04 in 10 mi ENE 11.5 mph - -   Overcast
9:50 AM 57.2 °F 53.6 °F 88% 30.04 in 4.3 mi ENE 13.8 mph - N/A   Mostly Cloudy
10:20 AM 57.2 °F 53.6 °F 88% 30.04 in 5.0 mi ENE 12.7 mph - N/A   Mostly Cloudy
10:50 AM 57.2 °F 53.6 °F 88% 30.04 in 6.2 mi ENE 12.7 mph - N/A   Mostly Cloudy
11:20 AM 57.2 °F 53.6 °F 88% 30.04 in 6.2 mi ENE 13.8 mph - N/A   Mostly Cloudy
11:50 AM 57.2 °F 53.6 °F 88% 30.04 in 5.0 mi NE 16.1 mph - N/A   Light Drizzle
12:20 PM 55.4 °F 53.6 °F 94% 30.01 in 5.0 mi NE 15.0 mph - N/A   Light Drizzle
12:50 PM 55 °F 55 °F 100% 30.02 in 6 mi ENE 13.8 mph - -   Mist
12:50 PM 55.4 °F 53.6 °F 94% 30.01 in 4.3 mi ENE 16.1 mph - N/A   Light Drizzle
1:20 PM 55.4 °F 53.6 °F 94% 30.01 in 6.2 mi ENE 17.3 mph - N/A   Mostly Cloudy
1:50 PM 55.4 °F 51.8 °F 88% 30.01 in 6.2 mi NE 16.1 mph - N/A   Mostly Cloudy
2:20 PM 55.4 °F 51.8 °F 88% 29.98 in 6.2 mi NE 16.1 mph - N/A   Mostly Cloudy
2:50 PM 55.4 °F 50.0 °F 82% 29.98 in 6.2 mi NE 17.3 mph - N/A   Mostly Cloudy
3:20 PM 55.4 °F 50.0 °F 82% 29.98 in 6.2 mi NE 16.1 mph - N/A   Mostly Cloudy
3:50 PM 55 °F 51 °F 81% 29.99 in 22 mi NE 11.5 mph - -   Mostly Cloudy
3:50 PM 55.4 °F 48.2 °F 77% 29.98 in 6.2 mi NE 16.1 mph - N/A   Mostly Cloudy
4:20 PM 53.6 °F 48.2 °F 82% 29.98 in 6.2 mi NE 17.3 mph - N/A   Mostly Cloudy
4:50 PM 53.6 °F 50.0 °F 88% 29.98 in 6.2 mi NE 16.1 mph - N/A   Mostly Cloudy
5:20 PM 53.6 °F 48.2 °F 82% 29.98 in 6.2 mi NE 13.8 mph - N/A   Mostly Cloudy
5:50 PM 53.6 °F 50.0 °F 88% 29.98 in 6.2 mi NE 16.1 mph - N/A   Mostly Cloudy
6:50 PM 53 °F 50 °F 85% 30.00 in 12 mi NE 12.7 mph - -   Overcast
9:50 PM 51 °F 49 °F 92% 30.02 in 3 mi NE 11.5 mph - - Rain Rain Showers